This is the latest recevied weather packets stored in our database for station/object N8SDR. If no packets are shown the sender has not sent any weather packets the latest 10 day(s).
| Time | Temp. | Humidity | Pressure | Rain* | Wind** | Luminosity | Snow |
|---|---|---|---|---|---|---|---|
| 1778111332 | 13.89° C | 61% | 1010 hPa | 0 mm | - | 37 W/m² | - |
| 1778111030 | 13.89° C | 61% | 1009.8 hPa | 0 mm | - | 49 W/m² | - |
| 1778110728 | 13.89° C | 62% | 1010.4 hPa | 0 mm | - | 55 W/m² | - |
| 1778110423 | 13.89° C | 62% | 1010.1 hPa | 0 mm | - | 62 W/m² | - |
| 1778110121 | 13.89° C | 61% | 1009.9 hPa | 0 mm | - | 72 W/m² | - |
| 1778109817 | 13.89° C | 60% | 1010.1 hPa | 0 mm | - | 89 W/m² | - |
| 1778109513 | 13.89° C | 62% | 1009.9 hPa | 0 mm | - | 72 W/m² | - |
| 1778109211 | 14.44° C | 60% | 1009.9 hPa | 0 mm | - | 73 W/m² | - |
| 1778108908 | 14.44° C | 58% | 1010 hPa | 0 mm | - | 131 W/m² | - |
| 1778108605 | 14.44° C | 60% | 1010.2 hPa | 0 mm | - | 93 W/m² | - |
| 1778108301 | 14.44° C | 59% | 1010 hPa | 0 mm | - | 105 W/m² | - |
| 1778107998 | 14.44° C | 59% | 1010.3 hPa | 0 mm | - | 101 W/m² | - |
| 1778107695 | 15° C | 58% | 1010 hPa | 0 mm | - | 240 W/m² | - |
| 1778107392 | 14.44° C | 59% | 1010.2 hPa | 0 mm | - | 199 W/m² | - |
| 1778107089 | 14.44° C | 59% | 1010.2 hPa | 0 mm | - | 151 W/m² | - |
| 1778106784 | 14.44° C | 60% | 1010.3 hPa | 0 mm | - | 118 W/m² | - |
| 1778106481 | 14.44° C | 60% | 1010.2 hPa | 0 mm | - | 134 W/m² | - |
| 1778106176 | 14.44° C | 59% | 1010.3 hPa | 0 mm | - | 111 W/m² | - |
| 1778105875 | 14.44° C | 58% | 1010.3 hPa | 0 mm | - | 126 W/m² | - |
| 1778105572 | 14.44° C | 60% | 1010.2 hPa | 0 mm | - | 122 W/m² | - |
| 1778105270 | 14.44° C | 60% | 1010.2 hPa | 0 mm | - | 92 W/m² | - |
| 1778104964 | 14.44° C | 60% | 1010.3 hPa | 0 mm | - | 74 W/m² | - |
| 1778104662 | 14.44° C | 59% | 1010.4 hPa | 0 mm | - | 114 W/m² | - |
| 1778104357 | 14.44° C | 58% | 1010.6 hPa | 0 mm | - | 144 W/m² | - |
| 1778104054 | 14.44° C | 59% | 1010.3 hPa | 0 mm | - | 167 W/m² | - |
* Rain latest hour (hover to see other rain measurements)
** Current wind speed in m/s (hover to see current wind gust speed)